Year,Month,Day,Hour,Minute,Value (Times are PST for temperature in C)
2015,11,17,00,00,8.70
2015,11,17,00,01,8.70
2015,11,17,00,02,8.70
2015,11,17,00,03,8.70
2015,11,17,00,04,8.70
2015,11,17,00,05,8.70
2015,11,17,00,06,8.70
2015,11,17,00,07,8.70
2015,11,17,00,08,8.60
2015,11,17,00,09,8.60
2015,11,17,00,10,8.60
2015,11,17,00,11,8.60
2015,11,17,00,12,8.60
2015,11,17,00,13,8.60
2015,11,17,00,14,8.60
2015,11,17,00,15,8.60
2015,11,17,00,16,8.60
2015,11,17,00,17,8.60
2015,11,17,00,18,8.50
2015,11,17,00,19,8.50
2015,11,17,00,20,8.50
2015,11,17,00,21,8.50
2015,11,17,00,22,8.50
2015,11,17,00,23,8.50
2015,11,17,00,24,8.40
2015,11,17,00,25,8.40
2015,11,17,00,26,8.40
2015,11,17,00,27,8.40
2015,11,17,00,28,8.40
2015,11,17,00,29,8.40
2015,11,17,00,30,8.40
2015,11,17,00,31,8.40
2015,11,17,00,32,8.40
2015,11,17,00,33,8.40
2015,11,17,00,34,8.40
2015,11,17,00,35,8.30
2015,11,17,00,36,8.30
2015,11,17,00,37,8.30
2015,11,17,00,38,8.30
2015,11,17,00,39,8.30
2015,11,17,00,40,8.30
2015,11,17,00,41,8.30
2015,11,17,00,42,8.30
2015,11,17,00,43,8.30
2015,11,17,00,44,8.30
2015,11,17,00,45,8.30
2015,11,17,00,46,8.30
2015,11,17,00,47,8.30
2015,11,17,00,48,8.30
2015,11,17,00,49,8.30
2015,11,17,00,50,8.30
2015,11,17,00,51,8.20
2015,11,17,00,52,8.20
2015,11,17,00,53,8.20
2015,11,17,00,54,8.20
2015,11,17,00,55,8.20
2015,11,17,00,56,8.20
2015,11,17,00,57,8.20
2015,11,17,00,58,8.20
2015,11,17,00,59,8.20
2015,11,17,01,00,8.20
2015,11,17,01,01,8.20
2015,11,17,01,02,8.20
2015,11,17,01,03,8.20
2015,11,17,01,04,8.20
2015,11,17,01,05,8.20
2015,11,17,01,06,8.20
2015,11,17,01,07,8.20
2015,11,17,01,08,8.20
2015,11,17,01,09,8.20
2015,11,17,01,10,8.20
2015,11,17,01,11,8.20
2015,11,17,01,12,8.20
2015,11,17,01,13,8.20
2015,11,17,01,14,8.20
2015,11,17,01,15,8.20
2015,11,17,01,16,8.20
2015,11,17,01,17,8.20
2015,11,17,01,18,8.20
2015,11,17,01,19,8.20
2015,11,17,01,20,8.20
2015,11,17,01,21,8.20
2015,11,17,01,22,8.10
2015,11,17,01,23,8.10
2015,11,17,01,24,8.10
2015,11,17,01,25,8.10
2015,11,17,01,26,8.10
2015,11,17,01,27,8.10
2015,11,17,01,28,8.10
2015,11,17,01,29,8.10
2015,11,17,01,30,8.10
2015,11,17,01,31,8.10
2015,11,17,01,32,8.10
2015,11,17,01,33,8.10
2015,11,17,01,34,8.10
2015,11,17,01,35,8.10
2015,11,17,01,36,8.10
2015,11,17,01,37,8.10
2015,11,17,01,38,8.10
2015,11,17,01,39,8.10
2015,11,17,01,40,8.10
2015,11,17,01,41,8.10
2015,11,17,01,42,8.10
2015,11,17,01,43,8.10
2015,11,17,01,44,8.10
2015,11,17,01,45,8.10
2015,11,17,01,46,8.10
2015,11,17,01,47,8.10
2015,11,17,01,48,8.10
2015,11,17,01,49,8.10
2015,11,17,01,50,8.10
2015,11,17,01,51,8.10
2015,11,17,01,52,8.00
2015,11,17,01,53,8.10
2015,11,17,01,54,8.10
2015,11,17,01,55,8.10
2015,11,17,01,56,8.10
2015,11,17,01,57,8.10
2015,11,17,01,58,8.00
2015,11,17,01,59,8.00
2015,11,17,02,00,8.00
2015,11,17,02,01,8.00
2015,11,17,02,02,8.10
2015,11,17,02,03,8.00
2015,11,17,02,04,8.00
2015,11,17,02,05,8.00
2015,11,17,02,06,8.00
2015,11,17,02,07,8.00
2015,11,17,02,08,8.00
2015,11,17,02,09,8.00
2015,11,17,02,10,8.00
2015,11,17,02,11,8.00
2015,11,17,02,12,8.00
2015,11,17,02,13,8.00
2015,11,17,02,14,8.10
2015,11,17,02,15,8.10
2015,11,17,02,16,8.10
2015,11,17,02,17,8.10
2015,11,17,02,18,8.10
2015,11,17,02,19,8.10
2015,11,17,02,20,8.10
2015,11,17,02,21,8.10
2015,11,17,02,22,8.10
2015,11,17,02,23,8.10
2015,11,17,02,24,8.10
2015,11,17,02,25,8.10
2015,11,17,02,26,8.10
2015,11,17,02,27,8.10
2015,11,17,02,28,8.10
2015,11,17,02,29,8.10
2015,11,17,02,30,8.10
2015,11,17,02,31,8.10
2015,11,17,02,32,8.10
2015,11,17,02,33,8.10
2015,11,17,02,34,8.10
2015,11,17,02,35,8.20
2015,11,17,02,36,8.20
2015,11,17,02,37,8.20
2015,11,17,02,38,8.20
2015,11,17,02,39,8.20
2015,11,17,02,40,8.30
2015,11,17,02,41,8.30
2015,11,17,02,42,8.30
2015,11,17,02,43,8.30
2015,11,17,02,44,8.30
2015,11,17,02,45,8.30
2015,11,17,02,46,8.40
2015,11,17,02,47,8.40
2015,11,17,02,48,8.50
2015,11,17,02,49,8.50
2015,11,17,02,50,8.50
2015,11,17,02,51,8.50
2015,11,17,02,52,8.50
2015,11,17,02,53,8.60
2015,11,17,02,54,8.60
2015,11,17,02,55,8.60
2015,11,17,02,56,8.60
2015,11,17,02,57,8.60
2015,11,17,02,58,8.70
2015,11,17,02,59,8.70
2015,11,17,03,00,8.70
2015,11,17,03,01,8.70
2015,11,17,03,02,8.70
2015,11,17,03,03,8.70
2015,11,17,03,04,8.80
2015,11,17,03,05,8.90
2015,11,17,03,06,8.90
2015,11,17,03,07,8.90
2015,11,17,03,08,9.00
2015,11,17,03,09,9.10
2015,11,17,03,10,9.10
2015,11,17,03,11,9.10
2015,11,17,03,12,9.20
2015,11,17,03,13,9.30
2015,11,17,03,14,9.30
2015,11,17,03,15,9.40
2015,11,17,03,16,9.40
2015,11,17,03,17,9.50
2015,11,17,03,18,9.60
2015,11,17,03,19,9.70
2015,11,17,03,20,9.90
2015,11,17,03,21,10.10
2015,11,17,03,22,10.20
2015,11,17,03,23,10.20
2015,11,17,03,24,10.40
2015,11,17,03,25,10.50
2015,11,17,03,26,10.70
2015,11,17,03,27,10.70
2015,11,17,03,28,10.90
2015,11,17,03,29,11.00
2015,11,17,03,30,11.10
2015,11,17,03,31,11.20
2015,11,17,03,32,11.20
2015,11,17,03,33,11.30
2015,11,17,03,34,11.40
2015,11,17,03,35,11.40
2015,11,17,03,36,11.40
2015,11,17,03,37,11.40
2015,11,17,03,38,11.50
2015,11,17,03,39,11.50
2015,11,17,03,40,11.60
2015,11,17,03,41,11.70
2015,11,17,03,42,11.70
2015,11,17,03,43,11.70
2015,11,17,03,44,11.70
2015,11,17,03,45,11.70
2015,11,17,03,46,11.70
2015,11,17,03,47,11.70
2015,11,17,03,48,11.80
2015,11,17,03,49,11.80
2015,11,17,03,50,11.80
2015,11,17,03,51,11.80
2015,11,17,03,52,11.90
2015,11,17,03,53,12.00
2015,11,17,03,54,12.00
2015,11,17,03,55,12.10
2015,11,17,03,56,12.20
2015,11,17,03,57,12.30
2015,11,17,03,58,12.40
2015,11,17,03,59,12.50
2015,11,17,04,00,12.50
2015,11,17,04,01,12.50
2015,11,17,04,02,12.60
2015,11,17,04,03,12.60
2015,11,17,04,04,12.70
2015,11,17,04,05,12.70
2015,11,17,04,06,12.70
2015,11,17,04,07,12.80
2015,11,17,04,08,12.80
2015,11,17,04,09,12.80
2015,11,17,04,10,12.80
2015,11,17,04,11,12.80
2015,11,17,04,12,12.80
2015,11,17,04,13,12.90
2015,11,17,04,14,12.90
2015,11,17,04,15,12.90
2015,11,17,04,16,12.90
2015,11,17,04,17,12.90
2015,11,17,04,18,12.90
2015,11,17,04,19,12.90
2015,11,17,04,20,12.90
2015,11,17,04,21,13.00
2015,11,17,04,22,13.00
2015,11,17,04,23,13.00
2015,11,17,04,24,13.00
2015,11,17,04,25,13.10
